Location: Lombard
(41.8800°N, 88.0080°W)
Time: 00:49:02
(UTC-05:00)

DX 1 - Pass Details

Date: 16 June 2023
Orbit: 614 x 623 km, 98.3° (Epoch: 29 September)

Event Time Altitude Azimuth Distance (km) Brightness Sun altitude
Rises 22:23:33 0° 32° (NNE) 2,909 ? -16.2°
Reaches altitude 10° 22:26:32 10° 54° (NE) 1,994 ? -16.5°
Enters shadow 22:29:12 16° 92° (E) 1,626 ? -16.8°
